QPF
0.03 0.02 0.02 0.02 0.03 0.03 0.04 0.04 0.04 0.04 0.05 0.05 0.05 0.05 0.05 0.05 0.04 0.04 0.04 0.04 0.04 0.08 0.10 0.08 0.08 0.08 0.07 0.05 0.06 0.06 0.05 0.05 0.05 0.04 0.04 0.04 0.04 0.04 0.05 0.05 0.04 0.03 0.03
0.02 0.02 0.02 0.02 0.02 0.02 0.03 0.04 0.06 0.05 0.05 0.04 0.04 0.04 0.04 0.04 0.04 0.04 0.03 0.04 0.04 0.06 0.07 0.07 0.06 0.07 0.07 0.06 0.06 0.06 0.05 0.03 0.04 0.04 0.04 0.03 0.03 0.03 0.02 0.03 0.03 0.04 0.04
0.02 0.02 0.01 0.01 0.02 0.03 0.05 0.11 0.14 0.10 0.08 0.06 0.05 0.05 0.04 0.03 0.03 0.03 0.04 0.04 0.03 0.03 0.05 0.05 0.06 0.07 0.07 0.07 0.07 0.05 0.05 0.05 0.04 0.05 0.06 0.04 0.04 0.03 0.02 0.02 0.02 0.03 0.04
0.01 0.01 0.01 0.01 0.01 0.01 0.01 0.04 0.12 0.12 0.08 0.07 0.05 0.05 0.05 0.04 0.03 0.03 0.04 0.04 0.04 0.03 0.03 0.04 0.05 0.06 0.05 0.06 0.06 0.05 0.05 0.05 0.05 0.04 0.05 0.05 0.04 0.05 0.03 0.02 0.02 0.02 0.03
0.01 0.01 0.01 0.00 0.00 0.00 0.01 0.01 0.03 0.07 0.05 0.03 0.03 0.04 0.05 0.05 0.04 0.03 0.03 0.03 0.04 0.04 0.03 0.03 0.03 0.04 0.04 0.04 0.04 0.04 0.04 0.04 0.04 0.04 0.03 0.03 0.04 0.06 0.05 0.04 0.03 0.02 0.02
0.01 0.00 0.00 0.00 0.00 0.01 0.01 0.01 0.01 0.01 0.01 0.01 0.02 0.03 0.03 0.04 0.04 0.04 0.04 0.04 0.03 0.03 0.03 0.03 0.03 0.05 0.06 0.04 0.05 0.05 0.04 0.04 0.04 0.05 0.04 0.05 0.05 0.05 0.06 0.05 0.04 0.04 0.04
0.01 0.01 0.01 0.01 0.01 0.01 0.02 0.01 0.01 0.01 0.01 0.01 0.03 0.03 0.03 0.03 0.03 0.04 0.04 0.03 0.02 0.03 0.05 0.04 0.04 0.04 0.07 0.06 0.05 0.06 0.06 0.06 0.06 0.06 0.05 0.06 0.05 0.05 0.06 0.06 0.05 0.05 0.04
0.01 0.01 0.01 0.01 0.01 0.01 0.01 0.01 0.01 0.01 0.01 0.01 0.02 0.02 0.02 0.02 0.02 0.02 0.03 0.03 0.03 0.03 0.05 0.06 0.05 0.05 0.05 0.06 0.07 0.07 0.07 0.07 0.07 0.05 0.06 0.06 0.05 0.05 0.05 0.05 0.05 0.05 0.04
0.00 0.01 0.01 0.01 0.01 0.01 0.01 0.01 0.01 0.01 0.01 0.01 0.01 0.01 0.01 0.01 0.01 0.02 0.03 0.03 0.03 0.03 0.04 0.06 0.05 0.04 0.03 0.04 0.05 0.06 0.05 0.05 0.05 0.04 0.03 0.04 0.04 0.04 0.04 0.04 0.05 0.06 0.05
0.00 0.01 0.01 0.01 0.01 0.01 0.01 0.01 0.02 0.03 0.03 0.02 0.02 0.01 0.01 0.02 0.02 0.03 0.04 0.05 0.04 0.04 0.04 0.05 0.04 0.03 0.02 0.03 0.04 0.04 0.04 0.05 0.04 0.04 0.03 0.03 0.03 0.04 0.04 0.05 0.05 0.05 0.06
0.01 0.01 0.01 0.01 0.01 0.01 0.01 0.02 0.02 0.03 0.03 0.03 0.05 0.07 0.06 0.06 0.07 0.08 0.08 0.09 0.08 0.07 0.06 0.05 0.04 0.02 0.02 0.02 0.03 0.03 0.04 0.04 0.04 0.05 0.05 0.04 0.04 0.05 0.06 0.06 0.06 0.06 0.06
0.01 0.02 0.02 0.02 0.02 0.02 0.01 0.01 0.01 0.02 0.04 0.06 0.10 0.13 0.14 0.13 0.12 0.13 0.13 0.10 0.09 0.07 0.05 0.04 0.02 0.02 0.02 0.02 0.02 0.03 0.04 0.04 0.04 0.05 0.05 0.04 0.04 0.05 0.06 0.07 0.07 0.06 0.05
0.02 0.02 0.02 0.02 0.03 0.03 0.01 0.01 0.01 0.01 0.01 0.02 0.04 0.07 0.07 0.06 0.05 0.06 0.06 0.05 0.04 0.03 0.02 0.01 0.01 0.01 0.01 0.01 0.02 0.02 0.03 0.03 0.04 0.06 0.05 0.05 0.05 0.04 0.04 0.06 0.06 0.05 0.04
0.01 0.01 0.01 0.01 0.01 0.01 0.01 0.01 0.01 0.00 0.00 0.00 0.01 0.02 0.03 0.03 0.03 0.04 0.03 0.03 0.03 0.02 0.02 0.01 0.01 0.01 0.01 0.01 0.02 0.02 0.03 0.03 0.03 0.04 0.04 0.05 0.04 0.04 0.05 0.05 0.06 0.05 0.05
0.01 0.01 0.01 0.01 0.01 0.01 0.01 0.01 0.01 0.01 0.00 0.00 0.01 0.01 0.02 0.01 0.02 0.03 0.03 0.02 0.02 0.02 0.03 0.02 0.02 0.02 0.01 0.01 0.01 0.02 0.02 0.02 0.02 0.03 0.03 0.03 0.03 0.04 0.05 0.05 0.06 0.06 0.07
0.01 0.01 0.01 0.01 0.01 0.01 0.01 0.01 0.01 0.01 0.01 0.00 0.00 0.01 0.01 0.01 0.02 0.04 0.04 0.03 0.03 0.03 0.03 0.03 0.02 0.02 0.01 0.01 0.01 0.01 0.02 0.02 0.02 0.03 0.03 0.03 0.02 0.02 0.02 0.03 0.04 0.06 0.07
0.01 0.01 0.01 0.01 0.01 0.01 0.01 0.01 0.01 0.00 0.00 0.00 0.00 0.01 0.01 0.01 0.02 0.02 0.03 0.03 0.03 0.02 0.02 0.02 0.01 0.01 0.01 0.01 0.00 0.00 0.01 0.02 0.02 0.02 0.02 0.02 0.01 0.01 0.02 0.02 0.03 0.05 0.05
0.01 0.01 0.01 0.01 0.01 0.01 0.00 0.00 0.01 0.00 0.00 0.00 0.00 0.00 0.01 0.01 0.01 0.02 0.02 0.02 0.02 0.02 0.01 0.01 0.01 0.01 0.01 0.01 0.01 0.00 0.00 0.01 0.01 0.01 0.01 0.02 0.02 0.01 0.02 0.02 0.04 0.04 0.05
0.01 0.01 0.01 0.01 0.01 0.01 0.01 0.00 0.00 0.00 0.00 0.00 0.00 0.00 0.01 0.01 0.01 0.01 0.02 0.03 0.02 0.02 0.01 0.01 0.01 0.01 0.01 0.01 0.01 0.01 0.00 0.00 0.00 0.00 0.01 0.01 0.02 0.01 0.02 0.03 0.04 0.04 0.04
0.02 0.01 0.01 0.01 0.01 0.01 0.01 0.00 0.00 0.00 0.00 0.00 0.00 0.00 0.00 0.01 0.01 0.01 0.02 0.02 0.02 0.01 0.01 0.01 0.01 0.01 0.02 0.02 0.02 0.01 0.00 0.00 0.01 0.01 0.01 0.01 0.02 0.02 0.01 0.02 0.03 0.03 0.02
0.02 0.02 0.01 0.01 0.01 0.01 0.01 0.00 0.00 0.01 0.01 0.00 0.00 0.01 0.01 0.01 0.01 0.01 0.01 0.02 0.02 0.01 0.01 0.01 0.01 0.01 0.02 0.01 0.01 0.01 0.01 0.01 0.01 0.01 0.01 0.01 0.01 0.01 0.00 0.01 0.01 0.02 0.01
0.02 0.02 0.01 0.01 0.01 0.01 0.01 0.01 0.01 0.02 0.02 0.01 0.01 0.01 0.01 0.01 0.01 0.02 0.02 0.02 0.02 0.02 0.02 0.02 0.02 0.02 0.01 0.01 0.01 0.01 0.01 0.01 0.02 0.02 0.01 0.01 0.01 0.00 0.00 0.00 0.01 0.01 0.01
0.02 0.02 0.02 0.01 0.01 0.01 0.01 0.01 0.01 0.01 0.01 0.01 0.01 0.01 0.02 0.02 0.01 0.01 0.01 0.02 0.02 0.02 0.03 0.02 0.03 0.03 0.02 0.01 0.01 0.01 0.01 0.01 0.01 0.01 0.01 0.02 0.02 0.02 0.01 0.01 0.01 0.01 0.01
0.03 0.03 0.03 0.02 0.01 0.01 0.01 0.01 0.01 0.00 0.00 0.01 0.01 0.01 0.01 0.01 0.01 0.01 0.01 0.02 0.03 0.02 0.02 0.02 0.02 0.02 0.01 0.02 0.02 0.01 0.01 0.01 0.01 0.01 0.01 0.01 0.01 0.01 0.01 0.01 0.01 0.01 0.01
0.03 0.04 0.03 0.03 0.02 0.01 0.01 0.01 0.01 0.01 0.01 0.01 0.01 0.01 0.01 0.01 0.01 0.01 0.02 0.02 0.03 0.02 0.01 0.01 0.01 0.01 0.01 0.01 0.01 0.01 0.01 0.01 0.01 0.01 0.01 0.01 0.01 0.01 0.01 0.01 0.01 0.01 0.02
0.01 0.02 0.03 0.04 0.03 0.02 0.01 0.01 0.01 0.01 0.01 0.01 0.01 0.00 0.00 0.01 0.01 0.01 0.03 0.03 0.02 0.01 0.01 0.01 0.00 0.00 0.00 0.01 0.01 0.01 0.01 0.01 0.01 0.01 0.01 0.01 0.01 0.02 0.01 0.01 0.01 0.01 0.01
MSLP
1006.92 1006.94 1007.06 1007.25 1007.49 1007.76 1008.06 1008.37 1008.69 1009.00 1009.28 1009.53 1009.72 1009.84 1009.90 1009.90 1009.88 1009.88 1009.93 1010.07 1010.33 1010.73 1011.26 1011.89 1012.59 1013.32 1014.02 1014.66 1015.22 1015.67 1016.03 1016.31 1016.51 1016.68 1016.82 1016.94 1017.06 1017.17 1017.28 1017.37 1017.45 1017.52 1017.59
1006.45 1006.51 1006.65 1006.85 1007.09 1007.36 1007.65 1007.97 1008.31 1008.64 1008.96 1009.23 1009.44 1009.55 1009.58 1009.53 1009.44 1009.35 1009.32 1009.39 1009.60 1009.97 1010.50 1011.16 1011.91 1012.69 1013.46 1014.17 1014.78 1015.28 1015.68 1015.98 1016.21 1016.40 1016.56 1016.71 1016.84 1016.97 1017.08 1017.16 1017.23 1017.27 1017.31
1006.02 1006.14 1006.33 1006.55 1006.79 1007.06 1007.35 1007.66 1008.00 1008.35 1008.69 1008.98 1009.20 1009.32 1009.34 1009.25 1009.11 1008.96 1008.85 1008.86 1009.01 1009.34 1009.85 1010.51 1011.28 1012.09 1012.90 1013.64 1014.30 1014.84 1015.26 1015.60 1015.86 1016.07 1016.25 1016.42 1016.58 1016.73 1016.85 1016.95 1017.01 1017.05 1017.05
1005.65 1005.84 1006.08 1006.33 1006.59 1006.86 1007.14 1007.44 1007.77 1008.12 1008.47 1008.77 1009.01 1009.14 1009.16 1009.07 1008.90 1008.72 1008.58 1008.53 1008.64 1008.93 1009.41 1010.05 1010.80 1011.62 1012.44 1013.20 1013.88 1014.44 1014.88 1015.23 1015.51 1015.74 1015.94 1016.12 1016.30 1016.47 1016.61 1016.72 1016.79 1016.82 1016.81
1005.33 1005.59 1005.89 1006.18 1006.46 1006.73 1007.00 1007.29 1007.60 1007.93 1008.27 1008.58 1008.83 1008.98 1009.03 1008.96 1008.81 1008.63 1008.48 1008.42 1008.51 1008.77 1009.21 1009.82 1010.55 1011.35 1012.16 1012.91 1013.59 1014.15 1014.60 1014.95 1015.22 1015.45 1015.65 1015.84 1016.02 1016.19 1016.34 1016.46 1016.53 1016.56 1016.56
1005.04 1005.36 1005.71 1006.05 1006.36 1006.64 1006.90 1007.17 1007.46 1007.77 1008.10 1008.40 1008.66 1008.84 1008.92 1008.89 1008.79 1008.66 1008.54 1008.50 1008.59 1008.83 1009.25 1009.83 1010.53 1011.29 1012.06 1012.79 1013.44 1013.99 1014.42 1014.76 1015.02 1015.22 1015.40 1015.57 1015.74 1015.90 1016.04 1016.16 1016.24 1016.28 1016.28
1004.75 1005.11 1005.51 1005.90 1006.24 1006.54 1006.81 1007.07 1007.33 1007.62 1007.92 1008.21 1008.48 1008.68 1008.80 1008.84 1008.81 1008.74 1008.69 1008.69 1008.81 1009.06 1009.47 1010.02 1010.67 1011.39 1012.11 1012.80 1013.41 1013.92 1014.33 1014.63 1014.86 1015.04 1015.18 1015.32 1015.45 1015.59 1015.72 1015.83 1015.92 1015.97 1015.99
1004.43 1004.82 1005.26 1005.69 1006.07 1006.40 1006.69 1006.94 1007.19 1007.45 1007.73 1008.01 1008.28 1008.50 1008.67 1008.77 1008.82 1008.84 1008.86 1008.93 1009.09 1009.36 1009.76 1010.28 1010.89 1011.56 1012.23 1012.86 1013.42 1013.89 1014.25 1014.52 1014.72 1014.85 1014.96 1015.07 1015.17 1015.28 1015.39 1015.50 1015.59 1015.66 1015.71
1004.09 1004.49 1004.95 1005.42 1005.85 1006.21 1006.52 1006.79 1007.03 1007.28 1007.54 1007.81 1008.07 1008.31 1008.52 1008.68 1008.80 1008.90 1009.00 1009.15 1009.35 1009.65 1010.04 1010.54 1011.10 1011.71 1012.32 1012.89 1013.40 1013.82 1014.14 1014.38 1014.54 1014.65 1014.73 1014.81 1014.89 1014.98 1015.09 1015.20 1015.31 1015.40 1015.47
1003.75 1004.14 1004.61 1005.11 1005.57 1005.97 1006.31 1006.61 1006.86 1007.11 1007.36 1007.62 1007.87 1008.12 1008.36 1008.56 1008.75 1008.92 1009.09 1009.29 1009.54 1009.86 1010.25 1010.72 1011.23 1011.78 1012.32 1012.83 1013.28 1013.66 1013.95 1014.16 1014.30 1014.40 1014.48 1014.55 1014.62 1014.72 1014.83 1014.96 1015.10 1015.22 1015.32
1003.47 1003.83 1004.29 1004.79 1005.27 1005.71 1006.10 1006.42 1006.71 1006.97 1007.22 1007.47 1007.72 1007.97 1008.22 1008.45 1008.68 1008.90 1009.12 1009.37 1009.66 1009.99 1010.37 1010.80 1011.27 1011.75 1012.23 1012.68 1013.08 1013.41 1013.68 1013.87 1014.02 1014.12 1014.21 1014.30 1014.40 1014.52 1014.66 1014.82 1014.98 1015.14 1015.28
1003.27 1003.59 1004.02 1004.51 1005.01 1005.47 1005.90 1006.26 1006.58 1006.87 1007.13 1007.38 1007.63 1007.88 1008.13 1008.37 1008.62 1008.87 1009.13 1009.41 1009.71 1010.05 1010.42 1010.82 1011.24 1011.66 1012.08 1012.47 1012.82 1013.12 1013.37 1013.56 1013.71 1013.84 1013.96 1014.08 1014.22 1014.38 1014.56 1014.75 1014.95 1015.15 1015.31
1003.19 1003.46 1003.85 1004.31 1004.80 1005.29 1005.74 1006.15 1006.50 1006.82 1007.10 1007.36 1007.61 1007.85 1008.10 1008.35 1008.60 1008.86 1009.14 1009.44 1009.75 1010.09 1010.44 1010.81 1011.19 1011.57 1011.93 1012.27 1012.58 1012.85 1013.07 1013.27 1013.43 1013.59 1013.74 1013.90 1014.08 1014.28 1014.50 1014.74 1014.97 1015.19 1015.38
1003.21 1003.42 1003.77 1004.19 1004.67 1005.16 1005.63 1006.07 1006.47 1006.81 1007.12 1007.40 1007.65 1007.89 1008.13 1008.37 1008.63 1008.90 1009.18 1009.49 1009.81 1010.14 1010.49 1010.84 1011.18 1011.52 1011.84 1012.13 1012.40 1012.63 1012.84 1013.03 1013.21 1013.38 1013.56 1013.75 1013.97 1014.20 1014.46 1014.72 1014.97 1015.21 1015.40
1003.28 1003.46 1003.76 1004.15 1004.60 1005.08 1005.56 1006.02 1006.45 1006.83 1007.16 1007.45 1007.72 1007.96 1008.20 1008.43 1008.69 1008.95 1009.24 1009.55 1009.88 1010.22 1010.56 1010.90 1011.22 1011.53 1011.81 1012.07 1012.30 1012.51 1012.69 1012.87 1013.04 1013.22 1013.41 1013.61 1013.84 1014.10 1014.36 1014.63 1014.89 1015.13 1015.32
1003.34 1003.50 1003.76 1004.11 1004.53 1005.00 1005.48 1005.95 1006.40 1006.81 1007.17 1007.49 1007.76 1008.02 1008.25 1008.49 1008.74 1009.01 1009.30 1009.62 1009.95 1010.29 1010.63 1010.96 1011.27 1011.56 1011.82 1012.05 1012.25 1012.43 1012.59 1012.75 1012.90 1013.06 1013.24 1013.45 1013.67 1013.91 1014.17 1014.43 1014.67 1014.89 1015.07
1003.33 1003.48 1003.71 1004.03 1004.42 1004.86 1005.34 1005.82 1006.28 1006.71 1007.10 1007.44 1007.74 1008.00 1008.25 1008.50 1008.75 1009.02 1009.31 1009.62 1009.96 1010.30 1010.64 1010.97 1011.28 1011.56 1011.80 1012.01 1012.20 1012.35 1012.49 1012.62 1012.74 1012.88 1013.04 1013.21 1013.41 1013.63 1013.85 1014.08 1014.30 1014.50 1014.66
1003.20 1003.34 1003.55 1003.84 1004.20 1004.62 1005.08 1005.55 1006.03 1006.48 1006.90 1007.27 1007.59 1007.89 1008.15 1008.40 1008.66 1008.93 1009.21 1009.52 1009.85 1010.18 1010.52 1010.84 1011.14 1011.42 1011.66 1011.87 1012.04 1012.18 1012.30 1012.41 1012.52 1012.63 1012.75 1012.89 1013.05 1013.23 1013.42 1013.61 1013.79 1013.95 1014.08
1002.94 1003.07 1003.26 1003.52 1003.84 1004.23 1004.67 1005.14 1005.62 1006.09 1006.54 1006.94 1007.31 1007.63 1007.92 1008.19 1008.45 1008.71 1008.98 1009.27 1009.58 1009.89 1010.21 1010.52 1010.82 1011.09 1011.33 1011.54 1011.71 1011.86 1011.98 1012.08 1012.18 1012.27 1012.37 1012.49 1012.61 1012.75 1012.90 1013.04 1013.19 1013.31 1013.41
1002.60 1002.70 1002.86 1003.07 1003.35 1003.70 1004.12 1004.58 1005.06 1005.55 1006.03 1006.47 1006.88 1007.24 1007.56 1007.85 1008.11 1008.36 1008.62 1008.87 1009.14 1009.42 1009.71 1010.00 1010.28 1010.54 1010.79 1011.01 1011.20 1011.37 1011.51 1011.63 1011.73 1011.82 1011.91 1012.01 1012.11 1012.21 1012.33 1012.44 1012.54 1012.64 1012.71
1002.24 1002.30 1002.40 1002.55 1002.78 1003.09 1003.46 1003.90 1004.39 1004.89 1005.39 1005.88 1006.33 1006.73 1007.08 1007.39 1007.66 1007.90 1008.13 1008.35 1008.57 1008.81 1009.05 1009.31 1009.57 1009.83 1010.08 1010.32 1010.54 1010.73 1010.91 1011.05 1011.18 1011.29 1011.39 1011.48 1011.57 1011.66 1011.75 1011.83 1011.90 1011.96 1012.00
1001.96 1001.95 1001.97 1002.05 1002.21 1002.45 1002.78 1003.18 1003.65 1004.16 1004.68 1005.20 1005.68 1006.12 1006.51 1006.84 1007.11 1007.34 1007.55 1007.73 1007.91 1008.10 1008.30 1008.52 1008.76 1009.02 1009.28 1009.54 1009.79 1010.02 1010.23 1010.42 1010.58 1010.71 1010.83 1010.93 1011.01 1011.09 1011.16 1011.22 1011.27 1011.31 1011.32
1001.86 1001.75 1001.67 1001.66 1001.73 1001.89 1002.14 1002.49 1002.92 1003.41 1003.93 1004.46 1004.97 1005.44 1005.85 1006.20 1006.48 1006.71 1006.90 1007.06 1007.21 1007.36 1007.53 1007.73 1007.95 1008.20 1008.48 1008.76 1009.04 1009.31 1009.56 1009.77 1009.96 1010.11 1010.24 1010.34 1010.43 1010.50 1010.56 1010.61 1010.64 1010.65 1010.64
1002.00 1001.77 1001.58 1001.46 1001.42 1001.47 1001.64 1001.91 1002.27 1002.71 1003.20 1003.71 1004.22 1004.69 1005.12 1005.48 1005.77 1006.01 1006.19 1006.34 1006.48 1006.62 1006.79 1006.98 1007.21 1007.47 1007.76 1008.06 1008.36 1008.65 1008.92 1009.15 1009.34 1009.50 1009.62 1009.72 1009.79 1009.85 1009.89 1009.93 1009.95 1009.95 1009.93
1002.38 1002.04 1001.73 1001.49 1001.33 1001.27 1001.32 1001.47 1001.74 1002.09 1002.51 1002.97 1003.43 1003.88 1004.29 1004.65 1004.95 1005.20 1005.40 1005.57 1005.73 1005.89 1006.08 1006.30 1006.55 1006.84 1007.15 1007.47 1007.78 1008.07 1008.33 1008.55 1008.72 1008.84 1008.94 1009.00 1009.05 1009.08 1009.11 1009.14 1009.16 1009.16 1009.15
1002.98 1002.53 1002.12 1001.76 1001.48 1001.29 1001.20 1001.22 1001.35 1001.57 1001.87 1002.23 1002.61 1002.99 1003.36 1003.69 1003.99 1004.25 1004.48 1004.70 1004.91 1005.13 1005.38 1005.65 1005.96 1006.28 1006.62 1006.95 1007.26 1007.53 1007.76 1007.92 1008.04 1008.11 1008.14 1008.15 1008.15 1008.16 1008.17 1008.19 1008.23 1008.26 1008.28
Thickness
5766 5763 5759 5756 5752 5747 5742 5739 5735 5732 5728 5726 5723 5719 5716 5714 5712 5709 5705 5702 5700 5698 5696 5696 5694 5693 5693 5691 5691 5690 5689 5689 5690 5689 5690 5692 5694 5694 5694 5694 5696 5697 5697
5761 5757 5754 5752 5748 5744 5740 5736 5732 5730 5726 5723 5720 5717 5713 5712 5710 5706 5702 5699 5696 5694 5694 5691 5690 5689 5687 5686 5685 5683 5683 5685 5685 5683 5682 5684 5687 5688 5692 5691 5690 5691 5693
5757 5753 5750 5748 5746 5741 5738 5735 5730 5727 5724 5721 5718 5714 5710 5707 5705 5701 5698 5696 5693 5690 5688 5686 5685 5684 5683 5682 5680 5679 5677 5677 5679 5679 5676 5675 5678 5681 5685 5685 5686 5686 5686
5756 5752 5749 5745 5743 5740 5736 5732 5728 5724 5721 5718 5714 5710 5705 5702 5700 5698 5696 5693 5690 5687 5684 5682 5681 5679 5679 5677 5676 5676 5675 5673 5673 5674 5674 5673 5674 5672 5674 5678 5681 5681 5680
5753 5750 5747 5744 5741 5738 5734 5730 5725 5721 5717 5714 5710 5706 5703 5700 5699 5695 5692 5689 5687 5684 5681 5679 5677 5675 5675 5673 5671 5670 5670 5670 5669 5669 5670 5669 5669 5668 5666 5667 5671 5674 5676
5750 5747 5745 5741 5737 5735 5731 5726 5722 5717 5714 5710 5706 5702 5698 5695 5693 5690 5688 5687 5685 5682 5679 5676 5673 5671 5670 5669 5667 5666 5666 5665 5664 5664 5665 5665 5664 5665 5663 5662 5663 5666 5670
5746 5742 5739 5735 5732 5729 5726 5724 5719 5713 5710 5707 5702 5699 5695 5692 5689 5687 5685 5683 5682 5680 5675 5673 5669 5668 5667 5665 5664 5662 5662 5661 5660 5659 5660 5661 5661 5662 5660 5659 5659 5660 5664
5742 5739 5735 5731 5728 5725 5723 5720 5716 5711 5708 5704 5699 5696 5693 5692 5689 5685 5683 5681 5679 5677 5673 5669 5667 5665 5664 5663 5661 5660 5659 5658 5657 5656 5655 5655 5656 5657 5656 5655 5653 5652 5655
5737 5734 5731 5727 5724 5721 5718 5716 5712 5708 5705 5702 5697 5694 5691 5688 5686 5682 5680 5678 5675 5673 5670 5667 5664 5662 5661 5659 5658 5657 5656 5655 5654 5653 5652 5651 5652 5653 5653 5652 5651 5648 5647
5733 5730 5726 5723 5720 5717 5714 5712 5709 5705 5702 5699 5696 5694 5690 5687 5683 5680 5676 5673 5671 5668 5666 5664 5662 5660 5658 5656 5654 5654 5652 5651 5649 5647 5646 5645 5648 5647 5647 5647 5646 5645 5643
5729 5726 5723 5720 5716 5714 5712 5708 5705 5702 5700 5697 5693 5689 5686 5683 5680 5676 5674 5671 5668 5665 5663 5661 5659 5657 5655 5654 5651 5651 5649 5647 5645 5644 5643 5641 5641 5641 5642 5641 5640 5639 5638
5726 5722 5719 5715 5712 5709 5707 5704 5702 5700 5697 5694 5690 5686 5682 5679 5676 5673 5670 5668 5665 5663 5660 5658 5656 5654 5652 5650 5648 5647 5646 5644 5642 5641 5639 5638 5637 5636 5635 5634 5633 5632 5631
5720 5718 5714 5710 5707 5704 5702 5699 5697 5695 5694 5691 5686 5682 5678 5675 5671 5668 5666 5664 5661 5659 5657 5655 5652 5651 5649 5647 5645 5643 5641 5640 5638 5637 5635 5634 5632 5630 5630 5628 5628 5627 5626
5713 5711 5707 5704 5702 5700 5698 5695 5693 5691 5689 5686 5682 5678 5673 5670 5667 5665 5662 5660 5658 5655 5653 5651 5649 5647 5646 5644 5642 5640 5638 5636 5635 5633 5631 5630 5628 5626 5624 5623 5622 5621 5620
5707 5704 5701 5699 5697 5695 5693 5691 5688 5686 5683 5680 5677 5673 5669 5666 5663 5660 5658 5656 5654 5653 5650 5648 5646 5644 5642 5640 5636 5635 5634 5632 5630 5628 5627 5625 5622 5619 5617 5617 5616 5615 5614
5701 5699 5697 5695 5692 5690 5688 5685 5683 5680 5678 5674 5672 5669 5665 5662 5659 5657 5654 5652 5650 5648 5646 5644 5642 5640 5639 5632 5628 5627 5628 5627 5625 5623 5621 5620 5617 5613 5609 5608 5606 5605 5606
5698 5695 5693 5690 5688 5686 5684 5681 5679 5676 5673 5670 5668 5665 5662 5659 5656 5654 5651 5648 5646 5644 5641 5640 5638 5636 5632 5626 5623 5620 5621 5622 5620 5618 5616 5616 5614 5609 5608 5604 5602 5600 5598
5695 5692 5689 5686 5684 5682 5680 5678 5676 5672 5669 5666 5664 5661 5658 5655 5653 5650 5646 5644 5642 5639 5637 5635 5634 5631 5628 5622 5619 5616 5617 5618 5616 5614 5612 5609 5607 5605 5601 5601 5600 5597 5595
5691 5687 5685 5683 5680 5678 5676 5673 5671 5668 5665 5662 5660 5657 5654 5650 5647 5645 5642 5639 5637 5635 5633 5632 5630 5627 5624 5619 5615 5612 5616 5615 5613 5611 5608 5606 5603 5597 5593 5594 5594 5592 5590
5685 5682 5680 5678 5675 5673 5671 5667 5665 5663 5660 5658 5656 5653 5649 5646 5643 5640 5637 5635 5633 5631 5630 5628 5626 5624 5621 5615 5611 5607 5614 5613 5611 5609 5606 5600 5596 5591 5588 5589 5588 5586 5585
5679 5677 5674 5671 5669 5668 5665 5662 5660 5658 5657 5655 5652 5649 5645 5642 5639 5636 5633 5630 5629 5627 5625 5624 5622 5620 5616 5612 5607 5604 5607 5608 5607 5607 5604 5600 5591 5586 5582 5581 5582 5580 5578
5674 5672 5669 5666 5664 5662 5659 5657 5655 5654 5653 5650 5647 5644 5641 5639 5637 5632 5629 5627 5624 5623 5621 5620 5618 5618 5614 5609 5605 5601 5598 5597 5599 5599 5598 5594 5586 5581 5578 5577 5576 5573 5572
5669 5667 5664 5661 5659 5657 5655 5652 5651 5649 5647 5644 5641 5639 5636 5634 5631 5628 5626 5623 5621 5621 5620 5618 5615 5613 5612 5607 5600 5597 5594 5591 5591 5592 5587 5583 5579 5577 5576 5573 5571 5570 5572
5662 5661 5658 5655 5653 5652 5651 5649 5647 5645 5642 5638 5636 5634 5632 5630 5627 5625 5623 5620 5618 5617 5615 5613 5611 5609 5606 5603 5600 5598 5594 5588 5587 5586 5582 5577 5575 5574 5572 5572 5571 5570 5569
5657 5654 5652 5649 5648 5647 5645 5644 5642 5639 5636 5634 5631 5630 5629 5627 5623 5620 5616 5614 5611 5608 5606 5606 5604 5602 5599 5593 5585 5586 5587 5585 5583 5579 5581 5580 5578 5575 5574 5572 5570 5568 5566
5650 5647 5645 5644 5643 5642 5640 5639 5637 5634 5631 5629 5627 5627 5625 5623 5621 5618 5613 5606 5603 5599 5595 5592 5591 5592 5587 5582 5580 5577 5575 5573 5571 5572 5577 5575 5573 5571 5569 5567 5566 5565 5563